Погода в Ландсхуте

Германия     48˚32′22″N   12˚09′37″E
темп.,
°C
ветер,
м/с
пор.,
м/с
влажн.,
%
обл.,
%
осадки,
мм/ч
давл.,
гПа
погр.,
м
6 декабря, вс
вс601:00+1˚ююз229897 0.0 99849
04:00+1˚зюз129888 0.0 99832
07:00+1˚юв129791 0.0 99922
10:00+2˚з229389 0.0 100086
13:00+4˚з118784 0.0 998235
16:00+2˚з249888 0.0 998107
19:00+2˚сз119994 0.1 99523
22:00+2˚юз1298100 0.0 99463
7 декабря, пн
пн701:00+2˚зюз3798100 0.0 994267
04:00+2˚зюз51097100 0.2 997405
07:00+1˚зюз3990100 0.3 1001354
10:00+2˚юз2485100 0.0 1003270
13:00+4˚зюз127682 0.0 1003531
16:00+1˚з018917 0.0 100422
19:00всв129313 0.0 100521
22:00−1˚ссз11951 0.0 100621
8 декабря, вт
вт801:00−1˚ссв119625 0.0 100621
04:00вюв119395 0.0 100641
07:00юв129393 0.0 100887
10:00+1˚вюв238963 0.0 1008195
13:00+3˚всв247878 0.0 1006381
16:00+2˚св258885 0.0 1006189
19:00+1˚с129193 0.0 100731
22:00+1˚зсз1192100 0.0 100725
9 декабря, ср
ср901:00зюз1193100 0.0 100823
04:00зюз2297100 0.0 100836
07:00+1˚юз2497100 0.0 1009188
10:00+1˚юз2597100 0.1 1010236
13:00+2˚юз2490100 0.1 1010292
16:00+1˚юз2497100 0.0 1010198
19:00+1˚з3498100 0.1 1012171
22:00зюз3498100 0.5 1012171
10 декабря, чт
чт1001:00+1˚зюз3498100 1.1 1012139
04:00+1˚зюз2398100 0.3 1012137
07:00+1˚юз2398100 0.4 101287
10:00зюз3596100 0.2 1013181
13:00+1˚зюз2493100 0.2 1013244
16:00+1˚зюз129698 0.0 101488
19:00+1˚зюз249899 0.1 1016173
22:00+1˚юз2397100 0.1 1016135